Weather History for Albert Lea, MN

Change the Weather History Date:

Sunday, February 3, 2013

  Actual Average Record
Temperature  
Mean Temperature 14 °F -  
Max Temperature 21 °F 25 °F 48 °F (2005)
Min Temperature 8 °F 10 °F -13 °F (2007)
Degree Days  
Heating Degree Days 50    
Moisture  
Dew Point 12 °F    
Average Humidity 85    
Maximum Humidity 100    
Minimum Humidity 73    
Precipitation  
Precipitation 0.00 in - - ()
Sea Level Pressure  
Sea Level Pressure 29.97 in    
Wind  
Wind Speed 10 mph (WNW)    
Max Wind Speed 17 mph    
Max Gust Speed 28 mph    
Visibility 7 miles    
Events Snow    
Averages and records for this station are not official NWS values.
T = Trace of Precipitation, MM = Missing Value Source: NWS Daily Summary

Daily Weather History Graph

Daily Weather History Graph

Search for Another Location

Airport:

Trip Planner

Search our weather history database for the weather conditions in past years. The results will help you decide how hot, cold, wet, or windy it might be!

Date:

Astronomy

Feb. 03, 2013 Rise Set
Actual Time 7:27 AM CST 5:27 PM CST
Civil Twilight 6:57 AM CST 5:58 PM CST
Nautical Twilight 6:23 AM CST 6:32 PM CST
Astronomical Twilight 5:49 AM CST 7:05 PM CST
Moon 12:56 AM CST (2/3) 11:04 AM CST (2/3)
Length of Visible Light 11h 00m
Length of Day
10h 00m
Waning Gibbous, 48% of the Moon is Illuminated
Feb 3
Waning Gibbous
Feb 10
New
Feb 17
First Quarter
Feb 25
Full
Mar 4
Last Quarter

Hourly Weather History & Observations

Time (CST) Temp. Windchill Dew Point Humidity Pressure Visibility Wind Dir Wind Speed Gust Speed Precip Events Conditions
12:10 AM 21.2 °F 8.3 °F 19.4 °F 93% 29.93 in 4.0 mi NW 13.8 mph 24.2 mph N/A   Overcast
12:30 AM 19.4 °F 6.0 °F 17.6 °F 93% 29.94 in 2.5 mi NW 13.8 mph 27.6 mph N/A   Overcast
12:50 AM 19.4 °F 5.5 °F 17.6 °F 93% 29.93 in 3.0 mi NW 15.0 mph 23.0 mph N/A   Overcast
1:10 AM 17.6 °F 4.3 °F 15.8 °F 93% 29.94 in 3.0 mi NW 12.7 mph 20.7 mph N/A Snow Light Snow
1:30 AM 17.6 °F 3.7 °F 15.8 °F 93% 29.95 in 4.0 mi NW 13.8 mph 24.2 mph N/A Snow Light Snow
1:50 AM 15.8 °F 2.7 °F 12.2 °F 86% 29.96 in 4.0 mi NW 11.5 mph 21.9 mph N/A Snow Light Snow
2:10 AM 15.8 °F -0.2 °F 12.2 °F 86% 29.97 in 4.0 mi NW 17.3 mph 25.3 mph N/A Snow Light Snow
2:30 AM 15.8 °F 2.1 °F 12.2 °F 86% 29.98 in 2.5 mi WNW 12.7 mph 21.9 mph N/A Snow Light Snow
2:50 AM 15.8 °F 0.3 °F 12.2 °F 86% 29.98 in 4.0 mi NW 16.1 mph 24.2 mph N/A Snow Light Snow
3:10 AM 14.0 °F -2.0 °F 10.4 °F 86% 29.99 in 3.0 mi NW 16.1 mph 21.9 mph N/A Snow Light Snow
3:30 AM 14.0 °F -1.4 °F 10.4 °F 86% 29.98 in 2.5 mi NW 15.0 mph 23.0 mph N/A Snow Light Snow
3:50 AM 12.2 °F -1.8 °F 10.4 °F 92% 29.99 in 4.0 mi WNW 11.5 mph 21.9 mph N/A   Overcast
4:10 AM 12.2 °F -2.5 °F 8.6 °F 85% 30.00 in 5.0 mi NW 12.7 mph 24.2 mph N/A   Mostly Cloudy
4:30 AM 10.4 °F -5.4 °F 8.6 °F 92% 30.01 in 4.0 mi NW 13.8 mph 19.6 mph N/A   Mostly Cloudy
4:50 AM 10.4 °F -4.8 °F 8.6 °F 92% 30.01 in 7.0 mi NW 12.7 mph 21.9 mph N/A   Overcast
5:10 AM 10.4 °F -3.3 °F 8.6 °F 92% 30.02 in 5.0 mi WNW 10.4 mph 23.0 mph N/A   Overcast
5:30 AM 10.4 °F -4.8 °F 8.6 °F 92% 30.02 in 5.0 mi WNW 12.7 mph 18.4 mph N/A   Overcast
5:50 AM 10.4 °F -4.1 °F 8.6 °F 92% 30.03 in 3.0 mi WNW 11.5 mph 20.7 mph N/A   Overcast
6:10 AM 10.4 °F -4.1 °F 6.8 °F 85% 30.03 in 10.0 mi NW 11.5 mph 17.3 mph N/A   Scattered Clouds
6:30 AM 8.6 °F -2.6 °F 6.8 °F 92% 30.04 in 10.0 mi WNW 6.9 mph - N/A   Scattered Clouds
6:50 AM 8.6 °F -3.7 °F 5.0 °F 85% 30.03 in 10.0 mi WNW 8.1 mph - N/A   Scattered Clouds
7:10 AM 8.6 °F -2.6 °F 3.2 °F 79% 30.03 in 10.0 mi WNW 6.9 mph - N/A   Clear
7:30 AM 8.6 °F -2.6 °F 3.2 °F 79% 30.04 in 10.0 mi WNW 6.9 mph - N/A   Clear
7:50 AM 8.6 °F -3.7 °F 3.2 °F 79% 30.05 in 10.0 mi WNW 8.1 mph 16.1 mph N/A   Clear
8:30 AM 10.4 °F -1.5 °F 5.0 °F 79% 30.04 in 10.0 mi WNW 8.1 mph - N/A   Overcast
8:50 AM 10.4 °F -1.5 °F 6.8 °F 85% 30.05 in 10.0 mi WNW 8.1 mph - N/A   Overcast
9:10 AM 12.2 °F -0.2 °F 6.8 °F 79% 30.05 in 10.0 mi WNW 9.2 mph - N/A   Overcast
9:31 AM 12.2 °F 1.7 °F 6.8 °F 79% 30.05 in 10.0 mi NW 6.9 mph - N/A   Scattered Clouds
9:50 AM 14.0 °F 1.2 °F 6.8 °F 73% 30.05 in 10.0 mi WNW 10.4 mph - N/A   Scattered Clouds
10:10 AM 14.0 °F 2.9 °F 8.6 °F 79% 30.05 in 10.0 mi NW 8.1 mph - N/A   Mostly Cloudy
10:31 AM 15.8 °F 2.7 °F 8.6 °F 73% 30.05 in 10.0 mi WNW 11.5 mph - N/A   Overcast
10:50 AM 15.8 °F 2.7 °F 8.6 °F 73% 30.06 in 10.0 mi West 11.5 mph - N/A   Overcast
11:10 AM 15.8 °F 5.1 °F 8.6 °F 73% 30.06 in 10.0 mi WNW 8.1 mph - N/A   Overcast
11:30 AM 15.8 °F 4.2 °F 10.4 °F 79% 30.05 in 10.0 mi NW 9.2 mph - N/A   Mostly Cloudy
11:50 AM 15.8 °F 5.1 °F 10.4 °F 79% 30.05 in 7.0 mi WNW 8.1 mph - N/A   Overcast
12:10 PM 15.8 °F 7.2 °F 10.4 °F 79% 30.04 in 7.0 mi WNW 5.8 mph - N/A Snow Light Snow
12:30 PM 15.8 °F 4.2 °F 10.4 °F 79% 30.04 in 7.0 mi West 9.2 mph - N/A Snow Light Snow
12:50 PM 15.8 °F 5.1 °F 10.4 °F 79% 30.03 in 7.0 mi WNW 8.1 mph - N/A Snow Light Snow
1:10 PM 15.8 °F 7.2 °F 10.4 °F 79% 30.01 in 10.0 mi West 5.8 mph - N/A   Overcast
1:30 PM 17.6 °F 12.3 °F 12.2 °F 79% 30.00 in 10.0 mi WNW 3.5 mph - N/A   Overcast
1:50 PM 17.6 °F 10.7 °F 10.4 °F 73% 29.99 in 10.0 mi West 4.6 mph - N/A   Overcast
2:10 PM 17.6 °F 10.7 °F 12.2 °F 79% 29.98 in 10.0 mi West 4.6 mph - N/A   Mostly Cloudy
2:30 PM 17.6 °F 10.7 °F 12.2 °F 79% 29.97 in 10.0 mi WSW 4.6 mph - N/A   Overcast
2:50 PM 17.6 °F 12.3 °F 12.2 °F 79% 29.97 in 10.0 mi WSW 3.5 mph - N/A   Overcast
3:10 PM 17.6 °F 12.3 °F 12.2 °F 79% 29.97 in 10.0 mi SSW 3.5 mph - N/A   Overcast
3:30 PM 17.6 °F 12.3 °F 12.2 °F 79% 29.97 in 10.0 mi SW 3.5 mph - N/A   Overcast
3:50 PM 17.6 °F - 12.2 °F 79% 29.95 in 10.0 mi Calm Calm - N/A   Mostly Cloudy
4:10 PM 17.6 °F 12.3 °F 12.2 °F 79% 29.95 in 10.0 mi SSW 3.5 mph - N/A   Scattered Clouds
4:30 PM 19.4 °F - 12.2 °F 74% 29.94 in 10.0 mi Calm Calm - N/A   Scattered Clouds
4:50 PM 19.4 °F 14.3 °F 12.2 °F 74% 29.94 in 10.0 mi South 3.5 mph - N/A   Overcast
5:10 PM 19.4 °F 14.3 °F 14.0 °F 80% 29.94 in 10.0 mi South 3.5 mph - N/A   Overcast
5:30 PM 19.4 °F 12.8 °F 14.0 °F 80% 29.94 in 10.0 mi South 4.6 mph - N/A   Overcast
5:50 PM 19.4 °F 14.3 °F 15.8 °F 86% 29.93 in 5.0 mi SE 3.5 mph - N/A Snow Light Snow
6:10 PM 19.4 °F 14.3 °F 15.8 °F 86% 29.93 in 1.2 mi ESE 3.5 mph - N/A Snow Light Snow
6:30 PM 19.4 °F 14.3 °F 15.8 °F 86% 29.92 in 1.2 mi ESE 3.5 mph - N/A Snow Snow
6:50 PM 19.4 °F 11.5 °F 17.6 °F 93% 29.92 in 2.5 mi East 5.8 mph - N/A Snow Light Snow
7:10 PM 19.4 °F 11.5 °F 17.6 °F 93% 29.91 in 3.0 mi East 5.8 mph - N/A Snow Light Snow
7:50 PM 19.4 °F 11.5 °F 17.6 °F 93% 29.90 in 3.0 mi East 5.8 mph - N/A Snow Light Snow
8:10 PM 19.4 °F 10.4 °F 17.6 °F 93% 29.90 in 5.0 mi East 6.9 mph - N/A Snow Light Snow
8:30 PM 19.4 °F 9.5 °F 17.6 °F 93% 29.89 in 4.0 mi ESE 8.1 mph - N/A Snow Light Snow
8:50 PM 19.4 °F 10.4 °F 17.6 °F 93% 29.89 in 5.0 mi East 6.9 mph - N/A Snow Light Snow
9:10 PM 19.4 °F 10.4 °F 17.6 °F 93% 29.88 in 3.0 mi ESE 6.9 mph - N/A Snow Light Snow
9:30 PM 17.6 °F 5.7 °F 17.6 °F 100% 29.88 in 2.5 mi East 10.4 mph - N/A Snow Light Snow
9:50 PM 19.4 °F 8.6 °F 17.6 °F 93% 29.87 in 2.5 mi East 9.2 mph - N/A Snow Light Snow
10:10 PM 19.4 °F 7.9 °F 17.6 °F 93% 29.86 in 4.0 mi East 10.4 mph - N/A Snow Light Snow
10:29 PM 19.4 °F 8.6 °F 17.6 °F 93% 29.86 in 7.0 mi East 9.2 mph - N/A Snow Light Snow
10:50 PM 19.4 °F 8.6 °F 17.6 °F 93% 29.84 in 4.0 mi East 9.2 mph - N/A Snow Light Snow
11:10 PM 19.4 °F 8.6 °F 17.6 °F 93% 29.85 in 7.0 mi ENE 9.2 mph - N/A   Overcast
11:30 PM 17.6 °F 5.0 °F 17.6 °F 100% 29.85 in 7.0 mi ENE 11.5 mph - N/A   Overcast
11:50 PM 17.6 °F 4.3 °F 17.6 °F 100% 29.84 in 10.0 mi ENE 12.7 mph - N/A   Overcast